Regional Weather Roundup
Issued by NWS Sioux Falls, SD

Home | Current Version | Previous Version | Text Only | Print | Product List | Glossary On
Versions: 1 2 3 4 5 6 7 8 9 10 11 12 13 14 15 16 17 18 19 20 21 22 23 24 25 26 27 28 29 30 31 32 33 34 35 36 37 38 39 40 41 42 43 44 45 46 47 48 49 50
432
ASUS43 KFSD 241502
RWRFSD

WEATHER ROUNDUP FOR SE SOUTH DAKOTA/SW MINNESOTA/NW IOWA
NATIONAL WEATHER SERVICE SIOUX FALLS SD
1000 AM CDT SUN JUL 24 2016

NOTE: "FAIR" INDICATES FEW OR NO CLOUDS BELOW 12,000 FEET WITH NO
SIGNIFICANT WEATHER AND OR OBSTRUCTIONS TO VISIBILITY.


SDZ038>040-050-052>070-241600-
SOUTHEAST SOUTH DAKOTA

CITY           SKY/WX    TMP DP  RH WIND       PRES   REMARKS
BROOKINGS      CLOUDY    70  62  76 N13       30.00S
CHAMBERLAIN    SUNNY     77  60  55 NE5       30.05R
HURON          CLOUDY    70  61  73 VRB3      30.00R
MADISON        FAIR      70  66  88 N7        30.03S
MITCHELL       CLOUDY    73  62  68 N7        30.02F
SIOUX FALLS    PTSUNNY   76  64  66 N10       30.00R
WINNER         FAIR      77  55  46 NE5       30.07R
YANKTON        SUNNY     77  63  61 NW7       30.00R
$$

MNZ071-072-080-081-089-090-097-098-241600-
SOUTHWEST MINNESOTA

CITY           SKY/WX    TMP DP  RH WIND       PRES   REMARKS
FAIRMONT       SUNNY     77  45  31 NW10      29.93R
JACKSON        SUNNY     77  61  57 NW12      29.98R
LUVERNE        SUNNY     75  61  60 N7        30.00R
MARSHALL       CLOUDY    71  62  73 NW13      29.99R
MONTEVIDEO     MOSUNNY   75  63  64 N12       29.97R
REDWOOD FALLS  PTSUNNY   72  61  68 NW9       29.95R
TRACY          CLOUDY    72  63  74 NW9       29.99R
WINDOM         SUNNY     73  61  64 NW12G20   29.98R
WORTHINGTON    SUNNY     75  63  66 MISG      30.00R
$$

IAZ001>003-012>014-020>022-031-032-NEZ013-014-SDZ071-241600-
NORTHWEST IOWA

CITY           SKY/WX    TMP DP  RH WIND       PRES   REMARKS
CHEROKEE       SUNNY     79  61  54 N12       29.96R
ESTHERVILLE    SUNNY     76  65  68 NW13      29.96R
LE MARS        SUNNY     81  66  61 N16       29.99R
SHELDON        SUNNY     79  70  73 N8        29.97S
SIOUX CITY     SUNNY     85  60  42 N8        29.98R
SPENCER        SUNNY     78  63  59 N13       29.97R
STORM LAKE     SUNNY     79  63  57 N13       29.98R
$$

ABBREVIATIONS USED IN REMARKS
   TC - TEMPERATURE IN CELSIUS
  WCI - WIND CHILL INDEX
   HX - HEAT INDEX
  VSB - VISIBILITY





USA.gov is the U.S. government's official web portal to all federal, state and local government web resources and services.